Hourly Data Report for October 07, 2015

All times are specified in Local Standard Time (LST). Add 1 hour to adjust for Daylight Saving Time where and when it is observed.

QIKIQTARJUAQ A
NUNAVUT

67°32'48.000" N
64°01'54.000" W
5.50 m
2400577
YVM

Download Data

Hourly Data (October 2015)
Hourly Data Report for October 7, 2015
Temp Definition
°C
Dew Point Temp Definition
°C
Rel Hum Definition
%
Wind Dir Definition
10's deg

Wind Spd Definition
km/h
Visibility Definition
km
Stn Press Definition
kPa
Hmdx Definition


Wind Chill Definition


Weather Definition


TIME
00:00 Legend Double Dagger -4.9 -10.7 64 18 17 16.1 100.64   -11 LegendNANA
01:00 Legend Double Dagger -6.0 -10.3 72 20 15 16.1 100.62   -12 LegendNANA
02:00 Legend Double Dagger -6.0 -10.8 69 17 9 16.1 100.60   -10 LegendNANA
03:00 Legend Double Dagger -6.0 -10.4 71 19 13 16.1 100.57   -11 LegendNANA
04:00 Legend Double Dagger -5.4 -10.2 69 19 17 16.1 100.52   -11 LegendNANA
05:00 Legend Double Dagger -5.5 -9.8 72 19 15 16.1 100.49   -11 LegendNANA
06:00 Legend Double Dagger -4.7 -9.0 72 18 15 16.1 100.46   -10 LegendNANA
07:00 Legend Double Dagger -4.5 -9.1 70 18 17 16.1 100.43   -10 LegendNANA
08:00 Legend Double Dagger -5.3 -9.6 72 21 13 16.1 100.42   -10 LegendNANA
09:00 Legend Double Dagger -5.0 -9.9 69   0 16.1 100.40     LegendNANA
10:00 Legend Double Dagger -5.0 -9.2 73 19 11 16.1 100.39   -10 LegendNANA
11:00 Legend Double Dagger -3.8 -8.6 70 12 5 16.1 100.36   -6 LegendNANA
12:00 Legend Double Dagger -4.1 -8.0 74 12 5 16.1 100.34   -6 LegendNANA
13:00 Legend Double Dagger -3.8 -8.5 70 14 4 16.1 100.34   -5 LegendNANA
14:00 Legend Double Dagger -3.7 -8.0 72 20 5 16.1 100.35   -6 LegendNANA
15:00 Legend Double Dagger -5.9 -9.6 75 11 4 16.1 100.35   -8 LegendNANA
16:00 Legend Double Dagger -5.0 -8.8 75 LegendMM 4 16.1 100.36   -7 LegendNANA
17:00 Legend Double Dagger -5.9 -9.8 74 19 5 16.1 100.36   -8 LegendNANA
18:00 Legend Double Dagger -6.0 -9.7 75 15 8 16.1 100.35   -10 LegendNANA
19:00 Legend Double Dagger -6.6 -9.8 78 18 11 16.1 100.33   -12 LegendNANA
20:00 Legend Double Dagger -7.1 -10.2 79 19 13 16.1 100.33   -13 LegendNANA
21:00 Legend Double Dagger -5.5 -9.3 75 19 11 16.1 100.30   -10 LegendNANA
22:00 Legend Double Dagger -5.0 -8.8 75 20 13 16.1 100.29   -10 LegendNANA
23:00 Legend Double Dagger -4.0 -9.3 67 LegendMM 4 16.1 100.29   -6 LegendNANA

Notes on Data Quality.

Legend

  • E = Estimated
  • M = Missing
  • NA = Not Available
  • ‡ = Partner data that is not subject to review by the National Climate Archives
Date modified: